FW8739 Weather Reports


time (UTC)temp
C
wind
direction
speed
KPH
gust
KPH
rain 1hr
cm
rain 24hr
cm
rain mn
cm
humidity
%
barometer
mb
20260504100205 8 185 0.0 0.0 0.00 0.00 0.00 99 1011.2
20260504090128 10 188 0.0 0.0 0.00 0.00 0.00 99 1011.5
20260504081558 11 187 0.0 0.0 0.00 0.00 0.00 98 1011.3
20260504081054 11 186 0.0 0.0 0.00 0.00 0.00 98 1011.3
20260504080551 11 186 0.0 0.0 0.00 0.00 0.00 97 1011.3
20260504050404 14 183 0.0 0.0 0.00 0.00 0.00 84 1012.7
20260504045901 15 187 0.0 0.0 0.00 0.00 0.00 82 1012.9
20260504045356 15 179 0.0 0.0 0.00 0.00 0.00 82 1013.1
20260504044853 15 170 0.0 0.0 0.00 0.00 0.00 81 1013.0
20260504044350 15 185 0.0 0.0 0.00 0.00 0.00 79 1013.0
20260504043848 16 188 1.6 1.6 0.00 0.00 0.00 78 1012.9
20260504043344 15 181 1.6 1.6 0.00 0.00 0.00 78 1013.0
20260504042842 15 187 0.0 0.0 0.00 0.00 0.00 81 1013.2
20260504042338 15 136 0.0 1.6 0.00 0.00 0.00 78 1013.2
20260504041834 15 187 0.0 0.0 0.00 0.00 0.00 83 1013.2
20260504041331 15 181 0.0 0.0 0.00 0.00 0.00 82 1013.3
20260504040827 15 186 0.0 0.0 0.00 0.00 0.00 82 1013.2
20260504040325 15 186 0.0 0.0 0.00 0.00 0.00 83 1013.4
20260504035820 15 175 1.6 1.6 0.00 0.00 0.00 81 1013.2
20260504035318 13 178 0.0 0.0 0.00 0.00 0.00 87 1013.4
20260504034815 12 181 0.0 0.0 0.00 0.00 0.00 90 1013.5
20260504034313 12 181 0.0 0.0 0.00 0.00 0.00 91 1013.7
20260504033809 12 182 0.0 0.0 0.00 0.00 0.00 93 1013.7
20260504033307 12 181 0.0 0.0 0.00 0.00 0.00 92 1013.5
20260504032804 12 190 0.0 0.0 0.00 0.00 0.00 93 1013.6
20260504032301 12 183 0.0 0.0 0.00 0.00 0.00 93 1013.8
20260504031757 12 194 0.0 0.0 0.00 0.00 0.00 93 1013.6
20260504031255 12 184 0.0 0.0 0.00 0.00 0.00 93 1013.6
20260504030750 12 185 0.0 0.0 0.00 0.00 0.00 92 1013.6
20260504030248 12 186 0.0 0.0 0.00 0.00 0.00 92 1013.8
20260504025744 12 185 0.0 0.0 0.00 0.00 0.00 92 1013.6
20260504025241 12 190 0.0 0.0 0.00 0.00 0.00 91 1013.7
20260504024738 12 186 0.0 0.0 0.00 0.00 0.00 91 1013.5
20260504024235 12 183 0.0 0.0 0.00 0.00 0.00 91 1013.6
20260504023732 12 186 0.0 0.0 0.00 0.00 0.00 90 1013.5
20260504023228 12 188 0.0 0.0 0.00 0.00 0.00 90 1013.4
20260504022724 12 182 0.0 0.0 0.00 0.00 0.00 89 1013.4
20260504022220 12 189 0.0 0.0 0.00 0.00 0.00 89 1013.3
20260504021718 12 186 0.0 0.0 0.00 0.00 0.00 89 1013.1
20260504021215 13 186 0.0 0.0 0.00 0.00 0.00 88 1013.4
20260504020711 13 193 0.0 0.0 0.00 0.00 0.00 88 1013.3
20260504020208 13 187 0.0 0.0 0.00 0.00 0.00 87 1013.4
20260504015704 13 185 0.0 0.0 0.00 0.00 0.00 85 1013.4
20260504015201 13 194 0.0 0.0 0.00 0.00 0.00 84 1013.4
20260504014656 13 187 0.0 0.0 0.00 0.00 0.00 84 1013.3
20260504014154 14 186 0.0 0.0 0.00 0.00 0.00 83 1013.2
20260504013651 14 186 0.0 0.0 0.00 0.00 0.00 81 1013.3
20260504013148 15 186 0.0 0.0 0.00 0.00 0.00 80 1013.0
20260504012645 15 186 0.0 0.0 0.00 0.00 0.00 79 1013.2
20260504012143 15 186 0.0 0.0 0.00 0.00 0.00 78 1013.2
20260504011639 16 188 0.0 0.0 0.00 0.00 0.00 77 1013.2
20260504011136 16 199 0.0 0.0 0.00 0.00 0.00 75 1012.9
20260504010632 16 169 0.0 0.0 0.00 0.00 0.00 72 1013.0
20260504010128 17 188 0.0 0.0 0.00 0.00 0.00 72 1012.9
20260504005625 17 204 0.0 0.0 0.00 0.00 0.00 71 1013.0
20260504005122 17 189 0.0 0.0 0.00 0.00 0.00 67 1012.9
20260504004620 18 188 0.0 0.0 0.00 0.00 0.00 65 1012.7
20260504004117 18 190 0.0 0.0 0.00 0.00 0.00 64 1012.9
20260504003613 19 196 0.0 0.0 0.00 0.00 0.00 62 1012.9
20260504003110 20 176 0.0 0.0 0.00 0.00 0.00 59 1012.7
20260504002607 20 182 0.0 0.0 0.00 0.00 0.00 60 1013.0
20260504002104 21 186 0.0 0.0 0.00 0.00 0.00 58 1012.9
20260504001602 21 190 0.0 0.0 0.00 0.00 0.00 60 1012.8
20260504001057 21 186 0.0 0.0 0.00 0.00 0.00 60 1012.8
20260504000555 22 247 0.0 0.0 0.00 0.00 0.00 54 1012.9
20260504000052 22 227 3.2 3.2 0.00 0.00 0.00 49 1012.7
20260503235550 22 215 3.2 3.2 0.00 0.00 0.00 49 1012.9
20260503235047 23 158 1.6 1.6 0.00 0.00 0.00 51 1012.9
20260503234545 23 174 3.2 3.2 0.00 0.00 0.00 46 1012.8
20260503234043 23 179 1.6 1.6 0.00 0.00 0.00 47 1012.9
20260503233539 24 17 3.2 8.0 0.00 0.00 0.00 49 1012.9
20260503233035 24 149 0.0 1.6 0.00 0.00 0.00 46 1013.1
20260503232532 23 128 0.0 1.6 0.00 0.00 0.00 46 1013.0
20260503232030 23 248 4.8 4.8 0.00 0.00 0.00 48 1013.0
20260503231527 23 177 0.0 0.0 0.00 0.00 0.00 47 1013.0
20260503231024 23 184 1.6 3.2 0.00 0.00 0.00 45 1013.1
20260503230520 23 174 3.2 4.8 0.00 0.00 0.00 44 1013.2
20260503230018 23 307 3.2 4.8 0.00 0.00 0.00 47 1013.3
20260503225515 23 203 4.8 4.8 0.00 0.00 0.00 45 1013.4
20260503225010 23 200 3.2 3.2 0.00 0.00 0.00 47 1013.2
20260503224508 23 203 0.0 1.6 0.00 0.00 0.00 48 1013.3
20260503224005 23 133 1.6 1.6 0.00 0.00 0.00 46 1013.3
20260503223503 23 233 1.6 1.6 0.00 0.00 0.00 44 1013.4
20260503222958 23 188 0.0 1.6 0.00 0.00 0.00 45 1013.4
20260503222457 23 191 1.6 3.2 0.00 0.00 0.00 46 1013.5
20260503221954 23 77 4.8 4.8 0.00 0.00 0.00 44 1013.6
20260503221453 23 184 1.6 1.6 0.00 0.00 0.00 46 1013.5
20260503220950 23 163 1.6 3.2 0.00 0.00 0.00 45 1013.4
20260503220446 23 147 4.8 4.8 0.00 0.00 0.00 43 1013.8
20260503215943 23 145 1.6 1.6 0.00 0.00 0.00 42 1013.7
20260503215439 23 211 3.2 4.8 0.00 0.00 0.00 41 1013.8
20260503214937 24 176 3.2 3.2 0.00 0.00 0.00 44 1013.9
20260503214435 23 191 3.2 3.2 0.00 0.00 0.00 42 1014.0
20260503213932 23 246 3.2 3.2 0.00 0.00 0.00 43 1014.0
20260503213430 24 6 4.8 8.0 0.00 0.00 0.00 42 1014.5
20260503212926 24 67 8.0 9.7 0.00 0.00 0.00 40 1014.1
20260503212424 24 190 1.6 1.6 0.00 0.00 0.00 40 1014.0
20260503211921 24 172 6.4 11.3 0.00 0.00 0.00 39 1014.4
20260503211418 25 82 3.2 3.2 0.00 0.00 0.00 39 1014.4
20260503210913 25 142 3.2 4.8 0.00 0.00 0.00 37 1014.8
20260503210410 25 196 3.2 3.2 0.00 0.00 0.00 39 1014.8
20260503205904 26 153 6.4 8.0 0.00 0.00 0.00 38 1014.7
20260503205402 25 219 4.8 4.8 0.00 0.00 0.00 39 1014.9
20260503204858 25 201 1.6 1.6 0.00 0.00 0.00 38 1014.9
20260503204356 25 121 4.8 9.7 0.00 0.00 0.00 37 1015.0
20260503203853 25 97 6.4 8.0 0.00 0.00 0.00 37 1015.4
20260503203350 25 224 4.8 4.8 0.00 0.00 0.00 39 1015.1
20260503202847 25 164 1.6 3.2 0.00 0.00 0.00 38 1015.5
20260503202345 24 284 8.0 14.5 0.00 0.00 0.00 39 1015.4
20260503201843 24 214 0.0 1.6 0.00 0.00 0.00 38 1015.7
20260503201340 25 281 4.8 4.8 0.00 0.00 0.00 42 1015.8
20260503200837 25 42 4.8 4.8 0.00 0.00 0.00 39 1015.7
20260503200333 25 126 3.2 3.2 0.00 0.00 0.00 37 1016.0
20260503195830 24 290 3.2 3.2 0.00 0.00 0.00 39 1016.1
20260503195327 25 133 3.2 3.2 0.00 0.00 0.00 38 1016.0
20260503194824 25 238 3.2 4.8 0.00 0.00 0.00 37 1016.1
20260503194320 25 191 4.8 8.0 0.00 0.00 0.00 38 1016.1
20260503193816 25 87 1.6 1.6 0.00 0.00 0.00 40 1016.3
20260503193312 24 318 8.0 11.3 0.00 0.00 0.00 39 1016.3
20260503192808 24 12 1.6 3.2 0.00 0.00 0.00 37 1016.4
20260503192305 24 33 6.4 9.7 0.00 0.00 0.00 40 1016.5
20260503191800 23 209 1.6 1.6 0.00 0.00 0.00 39 1016.5
20260503191257 25 336 6.4 16.1 0.00 0.00 0.00 41 1016.8
20260503190754 24 251 1.6 3.2 0.00 0.00 0.00 41 1016.7
20260503190251 24 31 1.6 3.2 0.00 0.00 0.00 40 1017.0
20260503185748 23 158 3.2 4.8 0.00 0.00 0.00 40 1017.0
20260503185244 23 266 4.8 9.7 0.00 0.00 0.00 37 1017.0
20260503184738 23 121 3.2 3.2 0.00 0.00 0.00 42 1016.8
20260503184235 23 228 3.2 4.8 0.00 0.00 0.00 38 1017.4
20260503183731 23 193 4.8 8.0 0.00 0.00 0.00 39 1017.5
20260503183229 23 193 4.8 8.0 0.00 0.00 0.00 40 1017.5
20260503182727 22 40 9.7 11.3 0.00 0.00 0.00 39 1017.5
20260503182226 22 88 3.2 3.2 0.00 0.00 0.00 40 1017.6
20260503181722 23 226 4.8 8.0 0.00 0.00 0.00 42 1017.8
20260503181219 22 159 1.6 1.6 0.00 0.00 0.00 38 1017.9
20260503180715 22 157 3.2 3.2 0.00 0.00 0.00 43 1018.2
20260503180214 22 221 6.4 8.0 0.00 0.00 0.00 41 1018.3
20260503175710 22 183 3.2 3.2 0.00 0.00 0.00 43 1018.4
20260503175208 22 166 3.2 3.2 0.00 0.00 0.00 40 1018.6
20260503174704 22 183 1.6 3.2 0.00 0.00 0.00 40 1018.7
20260503174201 22 197 1.6 1.6 0.00 0.00 0.00 44 1019.2
20260503173656 22 111 3.2 3.2 0.00 0.00 0.00 39 1019.0
20260503173153 21 200 3.2 3.2 0.00 0.00 0.00 42 1019.2
20260503172650 22 234 3.2 3.2 0.00 0.00 0.00 40 1019.2
20260503172147 21 188 1.6 1.6 0.00 0.00 0.00 48 1019.4
20260503171643 21 221 4.8 8.0 0.00 0.00 0.00 42 1019.7
20260503171141 21 221 3.2 3.2 0.00 0.00 0.00 43 1019.5
20260503170638 21 261 4.8 8.0 0.00 0.00 0.00 45 1019.6
20260503170135 21 76 4.8 4.8 0.00 0.00 0.00 45 1019.4
20260503150526 16 188 3.2 4.8 0.00 0.00 0.00 62 1021.0
20260503131419 3 187 0.0 0.0 0.00 0.00 0.00 99 1021.6
20260503130916 3 187 0.0 0.0 0.00 0.00 0.00 99 1021.8
20260503130414 2 187 0.0 0.0 0.00 0.00 0.00 99 1022.2
20260503110817 -1 187 0.0 0.0 0.00 0.00 0.00 99 1021.2
20260503110314 -1 189 0.0 0.0 0.00 0.00 0.00 99 1021.2